owner,sensor,date,latitude,longitude,vertical_datum,sea_water_temperature,qcFlag 
TABS,ioos:station:wmo:42043:1,2000-11-20T20:00:00Z,28.9818,-94.9186,-2.0,18.38,11111222 
TABS,ioos:station:wmo:42043:1,2000-11-20T20:30:00Z,28.9818,-94.9186,-2.0,18.4,11111222 
TABS,ioos:station:wmo:42043:1,2000-11-20T21:00:00Z,28.9818,-94.9186,-2.0,18.44,11111222 
TABS,ioos:station:wmo:42043:1,2000-11-21T05:30:00Z,28.9818,-94.9186,-2.0,18.52,11111222 
TABS,ioos:station:wmo:42043:1,2000-11-21T06:00:00Z,28.9818,-94.9186,-2.0,18.53,11111222 
TABS,ioos:station:wmo:42043:1,2000-11-21T06:30:00Z,28.9818,-94.9186,-2.0,18.55,11111222 
TABS,ioos:station:wmo:42043:1,2000-11-21T07:00:00Z,28.9818,-94.9186,-2.0,18.55,11111222 
TABS,ioos:station:wmo:42043:1,2000-11-21T07:30:00Z,28.9818,-94.9186,-2.0,18.57,11111222 
TABS,ioos:station:wmo:42043:1,2000-11-21T08:00:00Z,28.9818,-94.9186,-2.0,18.54,11111222 
TABS,ioos:station:wmo:42043:1,2000-11-21T08:30:00Z,28.9818,-94.9186,-2.0,18.42,11111222 
TABS,ioos:station:wmo:42043:1,2000-11-21T09:00:00Z,28.9818,-94.9186,-2.0,18.46,11111222 
TABS,ioos:station:wmo:42043:1,2000-11-21T09:30:00Z,28.9818,-94.9186,-2.0,18.45,11111222 
TABS,ioos:station:wmo:42043:1,2000-11-21T10:00:00Z,28.9818,-94.9186,-2.0,18.44,11111222 
TABS,ioos:station:wmo:42043:1,2000-11-21T10:30:00Z,28.9818,-94.9186,-2.0,18.49,11111222 
TABS,ioos:station:wmo:42043:1,2000-11-21T11:00:00Z,28.9818,-94.9186,-2.0,18.36,11111222 
TABS,ioos:station:wmo:42043:1,2000-11-21T11:30:00Z,28.9818,-94.9186,-2.0,18.36,11111222 
TABS,ioos:station:wmo:42043:1,2000-11-21T12:00:00Z,28.9818,-94.9186,-2.0,18.42,11111222 
TABS,ioos:station:wmo:42043:1,2000-11-21T12:30:00Z,28.9818,-94.9186,-2.0,18.4,11111222 
TABS,ioos:station:wmo:42043:1,2000-11-21T13:00:00Z,28.9818,-94.9186,-2.0,18.4,11111222 
TABS,ioos:station:wmo:42043:1,2000-11-21T13:30:00Z,28.9818,-94.9186,-2.0,18.35,11111222 
TABS,ioos:station:wmo:42043:1,2000-11-21T14:00:00Z,28.9818,-94.9186,-2.0,18.34,11111222 
TABS,ioos:station:wmo:42043:1,2000-11-21T14:30:00Z,28.9818,-94.9186,-2.0,18.24,11111222 
TABS,ioos:station:wmo:42043:1,2000-11-21T15:00:00Z,28.9818,-94.9186,-2.0,18.26,11111222 
TABS,ioos:station:wmo:42043:1,2000-11-21T15:30:00Z,28.9818,-94.9186,-2.0,18.2,11111222 
TABS,ioos:station:wmo:42043:1,2000-11-21T16:00:00Z,28.9818,-94.9186,-2.0,18.15,11111222 
TABS,ioos:station:wmo:42043:1,2000-11-21T16:30:00Z,28.9818,-94.9186,-2.0,18.2,11111222 
TABS,ioos:station:wmo:42043:1,2000-11-21T17:00:00Z,28.9818,-94.9186,-2.0,18.2,11111222 
TABS,ioos:station:wmo:42043:1,2000-11-21T17:30:00Z,28.9818,-94.9186,-2.0,18.16,11111222 
TABS,ioos:station:wmo:42043:1,2000-11-21T18:00:00Z,28.9818,-94.9186,-2.0,18.18,11111222 
TABS,ioos:station:wmo:42043:1,2000-11-21T18:30:00Z,28.9818,-94.9186,-2.0,18.18,11111222 
TABS,ioos:station:wmo:42043:1,2000-11-21T19:00:00Z,28.9818,-94.9186,-2.0,18.22,11111222 
TABS,ioos:station:wmo:42043:1,2000-11-21T19:30:00Z,28.9818,-94.9186,-2.0,18.21,11111222 
TABS,ioos:station:wmo:42043:1,2000-11-21T20:00:00Z,28.9818,-94.9186,-2.0,18.21,11111222 
TABS,ioos:station:wmo:42043:1,2000-11-21T20:30:00Z,28.9818,-94.9186,-2.0,18.21,11111222 
TABS,ioos:station:wmo:42043:1,2000-11-21T21:00:00Z,28.9818,-94.9186,-2.0,18.24,11111222 
TABS,ioos:station:wmo:42043:1,2000-11-21T21:30:00Z,28.9818,-94.9186,-2.0,18.25,11111222 
TABS,ioos:station:wmo:42043:1,2000-11-21T22:00:00Z,28.9818,-94.9186,-2.0,18.27,11111222 
TABS,ioos:station:wmo:42043:1,2000-11-21T22:30:00Z,28.9818,-94.9186,-2.0,18.21,11111222 
TABS,ioos:station:wmo:42043:1,2000-11-21T23:00:00Z,28.9818,-94.9186,-2.0,18.21,11111222 
TABS,ioos:station:wmo:42043:1,2000-11-21T23:30:00Z,28.9818,-94.9186,-2.0,18.22,11111222 
TABS,ioos:station:wmo:42043:1,2000-11-22T00:00:00Z,28.9818,-94.9186,-2.0,18.17,11111222 
TABS,ioos:station:wmo:42043:1,2000-11-22T00:30:00Z,28.9818,-94.9186,-2.0,18.12,11111222 
TABS,ioos:station:wmo:42043:1,2000-11-22T01:00:00Z,28.9818,-94.9186,-2.0,18.08,11111222 
TABS,ioos:station:wmo:42043:1,2000-11-22T01:30:00Z,28.9818,-94.9186,-2.0,18.07,11111222 
TABS,ioos:station:wmo:42043:1,2000-11-22T02:00:00Z,28.9818,-94.9186,-2.0,18.08,11111222 
TABS,ioos:station:wmo:42043:1,2000-11-22T02:30:00Z,28.9818,-94.9186,-2.0,18.05,11111222 
TABS,ioos:station:wmo:42043:1,2000-11-22T03:00:00Z,28.9818,-94.9186,-2.0,18.09,11111222 
TABS,ioos:station:wmo:42043:1,2000-11-22T03:30:00Z,28.9818,-94.9186,-2.0,18.01,11111222 
TABS,ioos:station:wmo:42043:1,2000-11-22T04:00:00Z,28.9818,-94.9186,-2.0,17.99,11111222 
TABS,ioos:station:wmo:42043:1,2000-11-22T05:30:00Z,28.9818,-94.9186,-2.0,17.87,11111222 
TABS,ioos:station:wmo:42043:1,2000-11-22T06:00:00Z,28.9818,-94.9186,-2.0,17.89,11111222 
TABS,ioos:station:wmo:42043:1,2000-11-22T06:30:00Z,28.9818,-94.9186,-2.0,17.89,11111222 
TABS,ioos:station:wmo:42043:1,2000-11-22T07:00:00Z,28.9818,-94.9186,-2.0,17.88,11111222 
TABS,ioos:station:wmo:42043:1,2000-11-22T07:30:00Z,28.9818,-94.9186,-2.0,17.85,11111222 
TABS,ioos:station:wmo:42043:1,2000-11-22T08:00:00Z,28.9818,-94.9186,-2.0,17.86,11111222 
TABS,ioos:station:wmo:42043:1,2000-11-22T08:30:00Z,28.9818,-94.9186,-2.0,17.87,11111222 
TABS,ioos:station:wmo:42043:1,2000-11-22T09:00:00Z,28.9818,-94.9186,-2.0,17.89,11111222 
TABS,ioos:station:wmo:42043:1,2000-11-22T09:30:00Z,28.9818,-94.9186,-2.0,17.86,11111222 
TABS,ioos:station:wmo:42043:1,2000-11-22T10:00:00Z,28.9818,-94.9186,-2.0,17.88,11111222 
TABS,ioos:station:wmo:42043:1,2000-11-22T10:30:00Z,28.9818,-94.9186,-2.0,17.89,11111222 
TABS,ioos:station:wmo:42043:1,2000-11-22T11:00:00Z,28.9818,-94.9186,-2.0,18.0,11111222 
TABS,ioos:station:wmo:42043:1,2000-11-22T11:30:00Z,28.9818,-94.9186,-2.0,17.89,11111222 
TABS,ioos:station:wmo:42043:1,2000-11-22T12:00:00Z,28.9818,-94.9186,-2.0,17.95,11111222 
TABS,ioos:station:wmo:42043:1,2000-11-22T12:30:00Z,28.9818,-94.9186,-2.0,17.97,11111222 
TABS,ioos:station:wmo:42043:1,2000-11-22T13:00:00Z,28.9818,-94.9186,-2.0,17.99,11111222 
TABS,ioos:station:wmo:42043:1,2000-11-22T13:30:00Z,28.9818,-94.9186,-2.0,17.99,11111222 
TABS,ioos:station:wmo:42043:1,2000-11-22T14:00:00Z,28.9818,-94.9186,-2.0,17.93,11111222 
TABS,ioos:station:wmo:42043:1,2000-11-22T14:30:00Z,28.9818,-94.9186,-2.0,17.96,11111222 
TABS,ioos:station:wmo:42043:1,2000-11-22T15:00:00Z,28.9818,-94.9186,-2.0,17.93,11111222 
TABS,ioos:station:wmo:42043:1,2000-11-22T15:30:00Z,28.9818,-94.9186,-2.0,17.96,11111222 
TABS,ioos:station:wmo:42043:1,2000-11-22T16:00:00Z,28.9818,-94.9186,-2.0,17.99,11111222 
TABS,ioos:station:wmo:42043:1,2000-11-22T16:30:00Z,28.9818,-94.9186,-2.0,18.01,11111222 
TABS,ioos:station:wmo:42043:1,2000-11-22T17:00:00Z,28.9818,-94.9186,-2.0,18.03,11111222 
TABS,ioos:station:wmo:42043:1,2000-11-22T17:30:00Z,28.9818,-94.9186,-2.0,18.04,11111222 
TABS,ioos:station:wmo:42043:1,2000-11-22T18:00:00Z,28.9818,-94.9186,-2.0,18.06,11111222 
TABS,ioos:station:wmo:42043:1,2000-11-22T18:30:00Z,28.9818,-94.9186,-2.0,18.1,11111222 
TABS,ioos:station:wmo:42043:1,2000-11-22T19:00:00Z,28.9818,-94.9186,-2.0,18.14,11111222 
TABS,ioos:station:wmo:42043:1,2000-11-22T19:30:00Z,28.9818,-94.9186,-2.0,18.17,11111222 
TABS,ioos:station:wmo:42043:1,2000-11-22T20:00:00Z,28.9818,-94.9186,-2.0,18.21,11111222 
TABS,ioos:station:wmo:42043:1,2000-11-22T20:30:00Z,28.9818,-94.9186,-2.0,18.24,11111222 
TABS,ioos:station:wmo:42043:1,2000-11-22T21:00:00Z,28.9818,-94.9186,-2.0,18.26,11111222 
TABS,ioos:station:wmo:42043:1,2000-11-22T21:30:00Z,28.9818,-94.9186,-2.0,18.25,11111222 
TABS,ioos:station:wmo:42043:1,2000-11-22T22:00:00Z,28.9818,-94.9186,-2.0,18.24,11111222 
TABS,ioos:station:wmo:42043:1,2000-11-22T22:30:00Z,28.9818,-94.9186,-2.0,18.21,11111222 
TABS,ioos:station:wmo:42043:1,2000-11-22T23:00:00Z,28.9818,-94.9186,-2.0,18.21,11111222 
TABS,ioos:station:wmo:42043:1,2000-11-22T23:30:00Z,28.9818,-94.9186,-2.0,18.17,11111222 
TABS,ioos:station:wmo:42043:1,2000-11-23T00:00:00Z,28.9818,-94.9186,-2.0,18.13,11111222 
TABS,ioos:station:wmo:42043:1,2000-11-23T00:30:00Z,28.9818,-94.9186,-2.0,18.08,11111222 
TABS,ioos:station:wmo:42043:1,2000-11-23T01:00:00Z,28.9818,-94.9186,-2.0,18.0,11111222 
TABS,ioos:station:wmo:42043:1,2000-11-23T01:30:00Z,28.9818,-94.9186,-2.0,18.01,11111222 
TABS,ioos:station:wmo:42043:1,2000-11-23T02:00:00Z,28.9818,-94.9186,-2.0,18.02,11111222 
TABS,ioos:station:wmo:42043:1,2000-11-23T02:30:00Z,28.9818,-94.9186,-2.0,18.06,11111222 
TABS,ioos:station:wmo:42043:1,2000-11-23T03:00:00Z,28.9818,-94.9186,-2.0,18.07,11111222 
TABS,ioos:station:wmo:42043:1,2000-11-23T03:30:00Z,28.9818,-94.9186,-2.0,18.05,11111222 
TABS,ioos:station:wmo:42043:1,2000-11-23T04:00:00Z,28.9818,-94.9186,-2.0,18.06,11111222 
TABS,ioos:station:wmo:42043:1,2000-11-23T05:30:00Z,28.9818,-94.9186,-2.0,18.04,11111222 
TABS,ioos:station:wmo:42043:1,2000-11-23T06:00:00Z,28.9818,-94.9186,-2.0,18.06,11111222 
TABS,ioos:station:wmo:42043:1,2000-11-23T06:30:00Z,28.9818,-94.9186,-2.0,18.04,11111222 
TABS,ioos:station:wmo:42043:1,2000-11-23T07:00:00Z,28.9818,-94.9186,-2.0,17.99,11111222 
TABS,ioos:station:wmo:42043:1,2000-11-23T07:30:00Z,28.9818,-94.9186,-2.0,17.96,11111222 
TABS,ioos:station:wmo:42043:1,2000-11-23T08:00:00Z,28.9818,-94.9186,-2.0,18.01,11111222 
TABS,ioos:station:wmo:42043:1,2000-11-23T08:30:00Z,28.9818,-94.9186,-2.0,18.09,11111222 
TABS,ioos:station:wmo:42043:1,2000-11-23T09:00:00Z,28.9818,-94.9186,-2.0,18.05,11111222 
TABS,ioos:station:wmo:42043:1,2000-11-23T09:30:00Z,28.9818,-94.9186,-2.0,18.05,11111222 
TABS,ioos:station:wmo:42043:1,2000-11-23T10:00:00Z,28.9818,-94.9186,-2.0,18.04,11111222 
TABS,ioos:station:wmo:42043:1,2000-11-23T10:30:00Z,28.9818,-94.9186,-2.0,17.99,11111222 
TABS,ioos:station:wmo:42043:1,2000-11-23T11:00:00Z,28.9818,-94.9186,-2.0,17.99,11111222 
TABS,ioos:station:wmo:42043:1,2000-11-23T11:30:00Z,28.9818,-94.9186,-2.0,18.02,11111222 
TABS,ioos:station:wmo:42043:1,2000-11-23T12:00:00Z,28.9818,-94.9186,-2.0,18.12,11111222 
TABS,ioos:station:wmo:42043:1,2000-11-23T12:30:00Z,28.9818,-94.9186,-2.0,18.18,11111222 
TABS,ioos:station:wmo:42043:1,2000-11-23T13:00:00Z,28.9818,-94.9186,-2.0,18.17,11111222 
TABS,ioos:station:wmo:42043:1,2000-11-23T13:30:00Z,28.9818,-94.9186,-2.0,18.15,11111222 
TABS,ioos:station:wmo:42043:1,2000-11-23T14:00:00Z,28.9818,-94.9186,-2.0,18.14,11111222 
TABS,ioos:station:wmo:42043:1,2000-11-23T14:30:00Z,28.9818,-94.9186,-2.0,18.15,11111222 
TABS,ioos:station:wmo:42043:1,2000-11-23T15:00:00Z,28.9818,-94.9186,-2.0,18.14,11111222 
TABS,ioos:station:wmo:42043:1,2000-11-23T15:30:00Z,28.9818,-94.9186,-2.0,18.14,11111222 
TABS,ioos:station:wmo:42043:1,2000-11-23T16:00:00Z,28.9818,-94.9186,-2.0,18.15,11111222 
TABS,ioos:station:wmo:42043:1,2000-11-23T16:30:00Z,28.9818,-94.9186,-2.0,18.15,11111222 
TABS,ioos:station:wmo:42043:1,2000-11-23T17:00:00Z,28.9818,-94.9186,-2.0,18.16,11111222 
TABS,ioos:station:wmo:42043:1,2000-11-23T17:30:00Z,28.9818,-94.9186,-2.0,18.19,11111222 
TABS,ioos:station:wmo:42043:1,2000-11-23T18:00:00Z,28.9818,-94.9186,-2.0,18.22,11111222 
TABS,ioos:station:wmo:42043:1,2000-11-23T18:30:00Z,28.9818,-94.9186,-2.0,18.25,11111222 
TABS,ioos:station:wmo:42043:1,2000-11-23T19:00:00Z,28.9818,-94.9186,-2.0,18.21,11111222 
TABS,ioos:station:wmo:42043:1,2000-11-23T19:30:00Z,28.9818,-94.9186,-2.0,18.19,11111222 
TABS,ioos:station:wmo:42043:1,2000-11-23T20:00:00Z,28.9818,-94.9186,-2.0,18.19,11111222 
TABS,ioos:station:wmo:42043:1,2000-11-23T20:30:00Z,28.9818,-94.9186,-2.0,18.18,11111222 
TABS,ioos:station:wmo:42043:1,2000-11-23T21:00:00Z,28.9818,-94.9186,-2.0,18.16,11111222 
TABS,ioos:station:wmo:42043:1,2000-11-23T21:30:00Z,28.9818,-94.9186,-2.0,18.12,11111222 
TABS,ioos:station:wmo:42043:1,2000-11-23T22:00:00Z,28.9818,-94.9186,-2.0,18.1,11111222 
TABS,ioos:station:wmo:42043:1,2000-11-23T22:30:00Z,28.9818,-94.9186,-2.0,18.07,11111222 
TABS,ioos:station:wmo:42043:1,2000-11-23T23:00:00Z,28.9818,-94.9186,-2.0,18.05,11111222 
TABS,ioos:station:wmo:42043:1,2000-11-23T23:30:00Z,28.9818,-94.9186,-2.0,18.05,11111222 
TABS,ioos:station:wmo:42043:1,2000-11-24T00:00:00Z,28.9818,-94.9186,-2.0,18.05,11111222 
TABS,ioos:station:wmo:42043:1,2000-11-24T00:30:00Z,28.9818,-94.9186,-2.0,18.04,11111222 
TABS,ioos:station:wmo:42043:1,2000-11-24T01:00:00Z,28.9818,-94.9186,-2.0,18.06,11111222 
TABS,ioos:station:wmo:42043:1,2000-11-24T01:30:00Z,28.9818,-94.9186,-2.0,18.1,11111222 
TABS,ioos:station:wmo:42043:1,2000-11-24T02:00:00Z,28.9818,-94.9186,-2.0,18.14,11111222 
TABS,ioos:station:wmo:42043:1,2000-11-24T02:30:00Z,28.9818,-94.9186,-2.0,18.17,11111222 
TABS,ioos:station:wmo:42043:1,2000-11-24T03:00:00Z,28.9818,-94.9186,-2.0,18.18,11111222 
TABS,ioos:station:wmo:42043:1,2000-11-24T03:30:00Z,28.9818,-94.9186,-2.0,18.17,11111222 
TABS,ioos:station:wmo:42043:1,2000-11-24T04:00:00Z,28.9818,-94.9186,-2.0,18.18,11111222 
TABS,ioos:station:wmo:42043:1,2000-11-24T05:30:00Z,28.9818,-94.9186,-2.0,18.14,11111222 
TABS,ioos:station:wmo:42043:1,2000-11-24T06:00:00Z,28.9818,-94.9186,-2.0,18.12,11111222 
TABS,ioos:station:wmo:42043:1,2000-11-24T06:30:00Z,28.9818,-94.9186,-2.0,18.11,11111222 
TABS,ioos:station:wmo:42043:1,2000-11-24T07:00:00Z,28.9818,-94.9186,-2.0,18.1,11111222 
TABS,ioos:station:wmo:42043:1,2000-11-24T07:30:00Z,28.9818,-94.9186,-2.0,18.1,11111222 
TABS,ioos:station:wmo:42043:1,2000-11-24T08:00:00Z,28.9818,-94.9186,-2.0,18.1,11111222 
TABS,ioos:station:wmo:42043:1,2000-11-24T08:30:00Z,28.9818,-94.9186,-2.0,18.13,11111222 
TABS,ioos:station:wmo:42043:1,2000-11-24T09:30:00Z,28.9818,-94.9186,-2.0,18.07,11111222 
TABS,ioos:station:wmo:42043:1,2000-11-24T10:00:00Z,28.9818,-94.9186,-2.0,18.03,11111222 
TABS,ioos:station:wmo:42043:1,2000-11-24T10:30:00Z,28.9818,-94.9186,-2.0,18.0,11111222 
TABS,ioos:station:wmo:42043:1,2000-11-24T11:00:00Z,28.9818,-94.9186,-2.0,17.97,11111222 
TABS,ioos:station:wmo:42043:1,2000-11-24T11:30:00Z,28.9818,-94.9186,-2.0,17.94,11111222 
TABS,ioos:station:wmo:42043:1,2000-11-24T12:00:00Z,28.9818,-94.9186,-2.0,17.95,11111222 
TABS,ioos:station:wmo:42043:1,2000-11-24T12:30:00Z,28.9818,-94.9186,-2.0,17.91,11111222 
TABS,ioos:station:wmo:42043:1,2000-11-24T13:00:00Z,28.9818,-94.9186,-2.0,17.86,11111222 
TABS,ioos:station:wmo:42043:1,2000-11-24T13:30:00Z,28.9818,-94.9186,-2.0,17.81,11111222 
TABS,ioos:station:wmo:42043:1,2000-11-24T14:00:00Z,28.9818,-94.9186,-2.0,17.82,11111222 
TABS,ioos:station:wmo:42043:1,2000-11-24T14:30:00Z,28.9818,-94.9186,-2.0,17.81,11111222 
TABS,ioos:station:wmo:42043:1,2000-11-24T15:00:00Z,28.9818,-94.9186,-2.0,17.81,11111222 
TABS,ioos:station:wmo:42043:1,2000-11-24T15:30:00Z,28.9818,-94.9186,-2.0,17.83,11111222 
TABS,ioos:station:wmo:42043:1,2000-11-24T16:00:00Z,28.9818,-94.9186,-2.0,17.82,11111222 
TABS,ioos:station:wmo:42043:1,2000-11-24T16:30:00Z,28.9818,-94.9186,-2.0,17.84,11111222 
TABS,ioos:station:wmo:42043:1,2000-11-24T17:00:00Z,28.9818,-94.9186,-2.0,17.86,11111222 
TABS,ioos:station:wmo:42043:1,2000-11-24T17:30:00Z,28.9818,-94.9186,-2.0,17.9,11111222 
TABS,ioos:station:wmo:42043:1,2000-11-24T18:00:00Z,28.9818,-94.9186,-2.0,17.92,11111222 
TABS,ioos:station:wmo:42043:1,2000-11-24T18:30:00Z,28.9818,-94.9186,-2.0,17.94,11111222 
TABS,ioos:station:wmo:42043:1,2000-11-24T19:00:00Z,28.9818,-94.9186,-2.0,17.96,11111222 
TABS,ioos:station:wmo:42043:1,2000-11-24T19:30:00Z,28.9818,-94.9186,-2.0,17.97,11111222 
TABS,ioos:station:wmo:42043:1,2000-11-24T20:00:00Z,28.9818,-94.9186,-2.0,17.98,11111222 
TABS,ioos:station:wmo:42043:1,2000-11-24T20:30:00Z,28.9818,-94.9186,-2.0,17.98,11111222 
TABS,ioos:station:wmo:42043:1,2000-11-24T21:00:00Z,28.9818,-94.9186,-2.0,17.99,11111222 
TABS,ioos:station:wmo:42043:1,2000-11-24T21:30:00Z,28.9818,-94.9186,-2.0,17.99,11111222 
TABS,ioos:station:wmo:42043:1,2000-11-24T22:00:00Z,28.9818,-94.9186,-2.0,17.98,11111222 
TABS,ioos:station:wmo:42043:1,2000-11-24T22:30:00Z,28.9818,-94.9186,-2.0,17.95,11111222 
TABS,ioos:station:wmo:42043:1,2000-11-24T23:00:00Z,28.9818,-94.9186,-2.0,17.93,11111222 
TABS,ioos:station:wmo:42043:1,2000-11-24T23:30:00Z,28.9818,-94.9186,-2.0,17.89,11111222 
TABS,ioos:station:wmo:42043:1,2000-11-25T00:00:00Z,28.9818,-94.9186,-2.0,17.88,11111222 
TABS,ioos:station:wmo:42043:1,2000-11-25T00:30:00Z,28.9818,-94.9186,-2.0,17.85,11111222 
TABS,ioos:station:wmo:42043:1,2000-11-25T01:00:00Z,28.9818,-94.9186,-2.0,17.83,11111222 
TABS,ioos:station:wmo:42043:1,2000-11-25T01:30:00Z,28.9818,-94.9186,-2.0,17.08,11111222 
TABS,ioos:station:wmo:42043:1,2000-11-25T02:00:00Z,28.9818,-94.9186,-2.0,16.73,11111222 
TABS,ioos:station:wmo:42043:1,2000-11-25T02:30:00Z,28.9818,-94.9186,-2.0,16.69,11111222 
TABS,ioos:station:wmo:42043:1,2000-11-25T03:00:00Z,28.9818,-94.9186,-2.0,16.7,11111222 
TABS,ioos:station:wmo:42043:1,2000-11-25T03:30:00Z,28.9818,-94.9186,-2.0,16.73,11111222 
TABS,ioos:station:wmo:42043:1,2000-11-25T04:00:00Z,28.9818,-94.9186,-2.0,16.72,11111222 
TABS,ioos:station:wmo:42043:1,2000-11-25T04:30:00Z,28.9818,-94.9186,-2.0,16.69,11111222 
TABS,ioos:station:wmo:42043:1,2000-11-25T05:00:00Z,28.9818,-94.9186,-2.0,16.77,11111222 
TABS,ioos:station:wmo:42043:1,2000-11-25T05:30:00Z,28.9818,-94.9186,-2.0,16.64,11111222 
TABS,ioos:station:wmo:42043:1,2000-11-25T06:00:00Z,28.9818,-94.9186,-2.0,16.51,11111222 
TABS,ioos:station:wmo:42043:1,2000-11-25T06:30:00Z,28.9818,-94.9186,-2.0,16.51,11111222 
TABS,ioos:station:wmo:42043:1,2000-11-25T07:00:00Z,28.9818,-94.9186,-2.0,16.37,11111222 
TABS,ioos:station:wmo:42043:1,2000-11-25T07:30:00Z,28.9818,-94.9186,-2.0,16.3,11111222 
TABS,ioos:station:wmo:42043:1,2000-11-25T08:00:00Z,28.9818,-94.9186,-2.0,16.54,11111222 
TABS,ioos:station:wmo:42043:1,2000-11-25T08:30:00Z,28.9818,-94.9186,-2.0,16.52,11111222 
TABS,ioos:station:wmo:42043:1,2000-11-25T09:00:00Z,28.9818,-94.9186,-2.0,16.48,11111222 
TABS,ioos:station:wmo:42043:1,2000-11-25T09:30:00Z,28.9818,-94.9186,-2.0,16.44,11111222 
TABS,ioos:station:wmo:42043:1,2000-11-25T10:00:00Z,28.9818,-94.9186,-2.0,16.42,11111222 
TABS,ioos:station:wmo:42043:1,2000-11-25T10:30:00Z,28.9818,-94.9186,-2.0,16.33,11111222 
TABS,ioos:station:wmo:42043:1,2000-11-25T11:00:00Z,28.9818,-94.9186,-2.0,16.27,11111222 
TABS,ioos:station:wmo:42043:1,2000-11-25T11:30:00Z,28.9818,-94.9186,-2.0,16.27,11111222 
TABS,ioos:station:wmo:42043:1,2000-11-25T12:00:00Z,28.9818,-94.9186,-2.0,16.3,11111222 
TABS,ioos:station:wmo:42043:1,2000-11-25T12:30:00Z,28.9818,-94.9186,-2.0,16.44,11111222 
TABS,ioos:station:wmo:42043:1,2000-11-25T13:00:00Z,28.9818,-94.9186,-2.0,16.45,11111222 
TABS,ioos:station:wmo:42043:1,2000-11-25T13:30:00Z,28.9818,-94.9186,-2.0,16.42,11111222 
TABS,ioos:station:wmo:42043:1,2000-11-25T14:00:00Z,28.9818,-94.9186,-2.0,16.42,11111222 
TABS,ioos:station:wmo:42043:1,2000-11-25T14:30:00Z,28.9818,-94.9186,-2.0,16.43,11111222 
TABS,ioos:station:wmo:42043:1,2000-11-25T15:00:00Z,28.9818,-94.9186,-2.0,16.4,11111222 
TABS,ioos:station:wmo:42043:1,2000-11-25T15:30:00Z,28.9818,-94.9186,-2.0,16.42,11111222 
TABS,ioos:station:wmo:42043:1,2000-11-25T16:00:00Z,28.9818,-94.9186,-2.0,16.41,11111222 
TABS,ioos:station:wmo:42043:1,2000-11-25T16:30:00Z,28.9818,-94.9186,-2.0,16.43,11111222 
TABS,ioos:station:wmo:42043:1,2000-11-25T17:00:00Z,28.9818,-94.9186,-2.0,16.45,11111222 
TABS,ioos:station:wmo:42043:1,2000-11-25T17:30:00Z,28.9818,-94.9186,-2.0,16.47,11111222 
TABS,ioos:station:wmo:42043:1,2000-11-25T18:00:00Z,28.9818,-94.9186,-2.0,16.55,11111222 
TABS,ioos:station:wmo:42043:1,2000-11-25T18:30:00Z,28.9818,-94.9186,-2.0,16.83,11111222 
TABS,ioos:station:wmo:42043:1,2000-11-25T19:00:00Z,28.9818,-94.9186,-2.0,16.89,11111222 
TABS,ioos:station:wmo:42043:1,2000-11-25T19:30:00Z,28.9818,-94.9186,-2.0,17.01,11111222 
TABS,ioos:station:wmo:42043:1,2000-11-25T20:00:00Z,28.9818,-94.9186,-2.0,17.02,11111222 
TABS,ioos:station:wmo:42043:1,2000-11-25T20:30:00Z,28.9818,-94.9186,-2.0,17.07,11111222 
TABS,ioos:station:wmo:42043:1,2000-11-25T21:00:00Z,28.9818,-94.9186,-2.0,17.09,11111222 
TABS,ioos:station:wmo:42043:1,2000-11-25T21:30:00Z,28.9818,-94.9186,-2.0,17.17,11111222 
TABS,ioos:station:wmo:42043:1,2000-11-25T22:00:00Z,28.9818,-94.9186,-2.0,17.12,11111222 
TABS,ioos:station:wmo:42043:1,2000-11-25T22:30:00Z,28.9818,-94.9186,-2.0,17.08,11111222 
TABS,ioos:station:wmo:42043:1,2000-11-25T23:00:00Z,28.9818,-94.9186,-2.0,17.02,11111222 
TABS,ioos:station:wmo:42043:1,2000-11-25T23:30:00Z,28.9818,-94.9186,-2.0,16.95,11111222 
TABS,ioos:station:wmo:42043:1,2000-11-26T00:00:00Z,28.9818,-94.9186,-2.0,16.9,11111222 
TABS,ioos:station:wmo:42043:1,2000-11-26T00:30:00Z,28.9818,-94.9186,-2.0,16.86,11111222 
TABS,ioos:station:wmo:42043:1,2000-11-26T01:00:00Z,28.9818,-94.9186,-2.0,16.88,11111222 
TABS,ioos:station:wmo:42043:1,2000-11-26T01:30:00Z,28.9818,-94.9186,-2.0,16.91,11111222 
TABS,ioos:station:wmo:42043:1,2000-11-26T02:00:00Z,28.9818,-94.9186,-2.0,16.89,11111222 
TABS,ioos:station:wmo:42043:1,2000-11-26T02:30:00Z,28.9818,-94.9186,-2.0,16.91,11111222 
TABS,ioos:station:wmo:42043:1,2000-11-26T03:00:00Z,28.9818,-94.9186,-2.0,16.91,11111222 
TABS,ioos:station:wmo:42043:1,2000-11-26T03:30:00Z,28.9818,-94.9186,-2.0,16.91,11111222 
TABS,ioos:station:wmo:42043:1,2000-11-26T04:00:00Z,28.9818,-94.9186,-2.0,16.89,11111222 
TABS,ioos:station:wmo:42043:1,2000-11-26T05:30:00Z,28.9818,-94.9186,-2.0,16.8,11111222 
TABS,ioos:station:wmo:42043:1,2000-11-26T06:00:00Z,28.9818,-94.9186,-2.0,16.72,11111222 
TABS,ioos:station:wmo:42043:1,2000-11-26T06:30:00Z,28.9818,-94.9186,-2.0,16.66,11111222 
TABS,ioos:station:wmo:42043:1,2000-11-26T07:00:00Z,28.9818,-94.9186,-2.0,16.58,11111222 
TABS,ioos:station:wmo:42043:1,2000-11-26T07:30:00Z,28.9818,-94.9186,-2.0,16.52,11111222 
TABS,ioos:station:wmo:42043:1,2000-11-26T08:00:00Z,28.9818,-94.9186,-2.0,16.44,11111222 
TABS,ioos:station:wmo:42043:1,2000-11-26T08:30:00Z,28.9818,-94.9186,-2.0,16.39,11111222 
TABS,ioos:station:wmo:42043:1,2000-11-26T09:00:00Z,28.9818,-94.9186,-2.0,16.36,11111222 
TABS,ioos:station:wmo:42043:1,2000-11-26T09:30:00Z,28.9818,-94.9186,-2.0,16.36,11111222 
TABS,ioos:station:wmo:42043:1,2000-11-26T10:00:00Z,28.9818,-94.9186,-2.0,16.35,11111222 
TABS,ioos:station:wmo:42043:1,2000-11-26T10:30:00Z,28.9818,-94.9186,-2.0,16.36,11111222 
TABS,ioos:station:wmo:42043:1,2000-11-26T11:00:00Z,28.9818,-94.9186,-2.0,16.35,11111222 
TABS,ioos:station:wmo:42043:1,2000-11-26T11:30:00Z,28.9818,-94.9186,-2.0,16.32,11111222 
TABS,ioos:station:wmo:42043:1,2000-11-26T12:00:00Z,28.9818,-94.9186,-2.0,16.32,11111222 
TABS,ioos:station:wmo:42043:1,2000-11-26T12:30:00Z,28.9818,-94.9186,-2.0,16.32,11111222 
TABS,ioos:station:wmo:42043:1,2000-11-26T13:00:00Z,28.9818,-94.9186,-2.0,16.34,11111222 
TABS,ioos:station:wmo:42043:1,2000-11-26T13:30:00Z,28.9818,-94.9186,-2.0,16.27,11111222 
TABS,ioos:station:wmo:42043:1,2000-11-26T14:00:00Z,28.9818,-94.9186,-2.0,16.27,11111222 
TABS,ioos:station:wmo:42043:1,2000-11-26T14:30:00Z,28.9818,-94.9186,-2.0,16.26,11111222 
TABS,ioos:station:wmo:42043:1,2000-11-26T15:00:00Z,28.9818,-94.9186,-2.0,16.27,11111222 
TABS,ioos:station:wmo:42043:1,2000-11-26T15:30:00Z,28.9818,-94.9186,-2.0,16.33,11111222 
TABS,ioos:station:wmo:42043:1,2000-11-26T16:00:00Z,28.9818,-94.9186,-2.0,16.37,11111222 
TABS,ioos:station:wmo:42043:1,2000-11-26T16:30:00Z,28.9818,-94.9186,-2.0,16.44,11111222 
TABS,ioos:station:wmo:42043:1,2000-11-26T17:00:00Z,28.9818,-94.9186,-2.0,16.53,11111222 
TABS,ioos:station:wmo:42043:1,2000-11-26T17:30:00Z,28.9818,-94.9186,-2.0,16.58,11111222 
TABS,ioos:station:wmo:42043:1,2000-11-26T18:00:00Z,28.9818,-94.9186,-2.0,16.61,11111222 
TABS,ioos:station:wmo:42043:1,2000-11-26T18:30:00Z,28.9818,-94.9186,-2.0,16.68,11111222 
TABS,ioos:station:wmo:42043:1,2000-11-26T19:00:00Z,28.9818,-94.9186,-2.0,16.72,11111222 
TABS,ioos:station:wmo:42043:1,2000-11-26T19:30:00Z,28.9818,-94.9186,-2.0,16.76,11111222 
TABS,ioos:station:wmo:42043:1,2000-11-26T20:00:00Z,28.9818,-94.9186,-2.0,16.82,11111222 
TABS,ioos:station:wmo:42043:1,2000-11-26T20:30:00Z,28.9818,-94.9186,-2.0,16.82,11111222 
TABS,ioos:station:wmo:42043:1,2000-11-26T21:00:00Z,28.9818,-94.9186,-2.0,16.83,11111222 
TABS,ioos:station:wmo:42043:1,2000-11-26T21:30:00Z,28.9818,-94.9186,-2.0,16.84,11111222 
TABS,ioos:station:wmo:42043:1,2000-11-26T22:00:00Z,28.9818,-94.9186,-2.0,16.84,11111222 